Location: Eisengrub
(48.7667°N, 14.1500°E)
Time: 22:50:56
(UTC+00:00)

Daily predictions for brighter satellites

Satellite Brightness Start Highest point End
(mag) Time Altitude Azimuth Time Altitude Azimuth Time Altitude Azimuth
NOSS 3-1 (C) 3.3 19:23:59 10° SSW 19:29:24 65° SE 19:35:43 10° NE
STARLINK-1134 4.2 19:25:48 10° WNW 19:29:47 46° SW 19:33:45 10° SE
STARLINK-1214 3.5 19:27:24 10° SSW 19:30:16 34° SE 19:33:07 10° ENE
NOSS 3-1 (A) 3.7 19:25:27 10° S 19:30:34 42° ESE 19:36:28 10° NE
STARLINK-1102 4.5 19:26:59 10° W 19:31:03 54° NNW 19:35:08 10° ENE
Sich 1 Rocket 4.4 19:27:23 10° N 19:31:42 39° ENE 19:36:01 10° SE
STARLINK-1095 3.8 19:27:57 10° WNW 19:32:06 71° NNE 19:36:14 10° ESE
H-2A R/B 4.2 19:28:05 10° SSW 19:32:10 25° W 19:36:24 10° NW
USA 186 4.4 19:31:43 10° WSW 19:32:30 11° W 19:33:17 10° WNW
Abrixas rocket 2.3 19:30:07 10° SW 19:32:55 41° SSE 19:35:44 10° E
Cosmos 1190 Rocket 4.2 19:27:56 10° NNW 19:33:07 61° ENE 19:38:17 10° SE
CREW DRAGON DEMO-1 DEB 3.1 19:30:43 10° WNW 19:33:47 56° SSW 19:36:48 10° SE
STARLINK-1135 4.3 19:30:45 10° WNW 19:34:42 43° SW 19:38:38 10° SE
Meteor 1-4 Rocket 3.5 19:33:52 10° SSE 19:36:50 28° E 19:39:50 10° NNE
STARLINK-1077 3.8 19:32:55 10° WNW 19:37:05 74° NNE 19:41:13 10° ESE
SPOT 5 4.2 19:33:53 10° ESE 19:38:15 29° ENE 19:42:46 10° N
STARLINK-1141 4.4 19:35:47 10° WNW 19:39:41 40° SW 19:43:34 10° SSE
Cosmos 1782 Rocket 3.7 19:36:12 10° N 19:40:42 69° E 19:45:08 10° SSE
Aureole 1 Rocket 3.2 19:36:52 10° NNW 19:40:44 65° ENE 19:45:45 10° SSE
STARLINK-1219 4.5 19:37:12 10° SSW 19:40:45 28° SE 19:44:18 10° E
NOSS 2-3 (C) 4.2 19:37:38 10° S 19:41:35 38° ESE 19:46:11 10° NE
STARLINK-1075 3.7 19:37:55 10° WNW 19:42:04 78° NNE 19:46:13 10° ESE
MetOp-B 4.2 19:37:29 10° SSE 19:42:49 75° ENE 19:48:11 10° NNW
Cosmos 1140 Rocket 3.6 19:40:11 10° NNW 19:45:23 69° ENE 19:50:35 10° SSE
STARLINK-1211 4.4 19:42:02 10° SSW 19:45:40 30° SE 19:49:19 10° ENE
STARLINK-1093 3.7 19:42:54 10° WNW 19:47:04 82° NNE 19:51:13 10° ESE
BREEZE M DEB (TANK) 4.4 19:42:21 10° SSW 19:48:12 24° SSE 19:50:55 10° E
Cosmos 614 Rocket 4.2 19:43:24 10° NNW 19:48:28 70° WSW 19:53:31 10° SSE
Cosmos 1703 Rocket 3.5 19:44:31 10° S 19:48:51 87° E 19:53:12 10° N
Okean 2 Rocket 3.9 19:44:51 10° N 19:48:59 36° ENE 19:52:51 11° SE
STARLINK-1245 4.3 19:46:56 10° SSW 19:50:38 32° SE 19:54:21 10° ENE
Cosmos 1371 Rocket 4.1 19:45:38 10° S 19:50:46 58° ESE 19:55:54 10° NNE
STARLINK-1074 3.6 19:47:53 10° WNW 19:52:03 86° NNE 19:56:12 10° ESE
Cosmos 1634 Rocket 4.1 19:46:38 10° N 19:52:57 68° E 19:59:15 10° SSE
STARLINK-1110 4.5 19:49:17 10° WNW 19:53:19 49° N 19:57:22 10° E
Cosmos 1743 3.5 19:49:47 10° NNW 19:53:30 51° W 19:57:11 10° S
STARLINK-1233 4.2 19:51:48 10° SSW 19:55:34 35° SE 19:59:22 10° ENE
STARLINK-1087 3.8 19:54:09 10° W 19:55:40 18° SW 19:56:51 12° S
Cosmos 1544 3.0 19:52:23 10° N 19:56:03 80° E 19:59:40 10° SSE
Landsat 7 3.9 19:52:29 10° SSE 19:57:12 68° ENE 20:01:57 10° N
Cosmos 2082 Rocket 3.2 19:51:53 10° NNW 19:57:13 37° NE 20:02:27 10° ESE
SAR-Lupe-2 3.8 19:54:36 10° NNE 19:58:08 49° E 20:01:37 10° S
STARLINK-1124 4.4 19:55:04 10° WNW 19:59:07 50° N 20:03:10 10° E
ERBS 4.1 20:00:02 14° SE 20:00:07 14° SE 20:01:50 10° E
Cosmos 1954 Rocket 4.2 19:55:07 10° NNW 20:00:21 62° ENE 20:05:03 13° SE
STARLINK-1204 4.1 19:56:42 10° SSW 20:00:32 37° SE 20:04:23 10° ENE
STARLINK-1088 3.6 19:57:50 10° WNW 20:02:00 86° SSW 20:05:46 12° ESE
STARLINK-1122 4.4 20:00:03 10° WNW 20:04:07 51° N 20:08:10 10° E
ERS-1 Rocket 3.3 20:00:29 12° SE 20:04:58 52° ENE 20:09:52 10° N
STARLINK-1238 4.0 20:01:34 10° SSW 20:05:28 40° SE 20:09:22 10° ENE
Cosmos 1833 Rocket 2.9 20:00:43 10° NNW 20:06:18 61° ENE 20:11:09 14° SE
STARLINK-1115 3.6 20:02:48 10° WNW 20:06:58 81° SSW 20:10:33 14° ESE
SeaSat 1 4.2 20:04:33 10° ENE 20:07:01 14° ESE 20:08:32 12° ESE
Cosmos 1975 3.1 20:04:03 10° NNW 20:08:07 70° W 20:12:08 10° S
STARLINK-1126 4.3 20:04:59 10° WNW 20:09:04 52° NNE 20:13:07 10° E
Spot 2 Rocket 3.6 20:05:21 10° SSE 20:10:23 79° WSW 20:15:28 10° NNW
STARLINK-1201 3.9 20:06:30 10° SW 20:10:26 44° SE 20:14:23 10° ENE
Tsikada Rocket 4.2 20:04:19 10° SSW 20:10:31 74° W 20:16:43 10° N
STARLINK-1076 3.6 20:07:47 10° WNW 20:11:57 77° SSW 20:15:20 15° SE
CZ-2C R/B 4.0 20:06:41 10° N 20:11:58 45° WNW 20:17:16 10° SW
Meteor 2-9 Rocket 4.3 20:07:01 10° NNW 20:12:28 75° W 20:17:47 10° S
Cosmos 676 Rocket 4.0 20:07:49 10° NNW 20:13:05 79° ENE 20:17:33 15° SSE
STARLINK-1082 4.3 20:10:02 10° WNW 20:14:07 54° NNE 20:18:12 10° E
STARLINK-1206 3.8 20:11:25 10° SW 20:15:24 47° SE 20:19:23 10° ENE
GENESIS II 4.3 20:12:34 10° NW 20:16:38 77° NE 20:19:36 17° SE
STARLINK-1092 3.6 20:12:45 10° WNW 20:16:54 72° SSW 20:20:06 16° SE
Cosmos 389 Rocket 4.2 20:14:44 10° SW 20:17:54 34° WNW 20:21:08 10° N
STARLINK-1100 4.2 20:15:01 10° WNW 20:19:06 56° NNE 20:23:12 10° E
Cosmos 2056 Rocket 3.4 20:14:18 10° SSW 20:19:24 84° ESE 20:24:33 10° NNE
SL-4 R/B 2.6 20:16:40 10° NNW 20:19:38 32° NE 20:21:42 15° ESE
STARLINK-1205 3.7 20:16:20 10° SW 20:20:21 50° SE 20:24:23 10° ENE
STARLINK-1080 3.7 20:17:47 10° WNW 20:21:55 68° SSW 20:24:55 18° SE
STARLINK-1083 4.2 20:20:00 10° WNW 20:24:06 57° NNE 20:28:11 10° E
ISS -3.3 20:21:50 10° WNW 20:25:11 61° NNE 20:28:26 11° E
STARLINK-1218 3.7 20:21:16 10° SW 20:25:18 54° SSE 20:29:22 10° ENE
STARLINK-1090 3.7 20:22:45 10° WNW 20:26:52 63° SSW 20:29:42 19° SE
STARLINK-1125 4.1 20:24:58 10° WNW 20:29:05 59° NNE 20:33:12 10° E
STARLINK-1254 3.6 20:26:13 10° SW 20:30:17 58° SSE 20:34:22 10° ENE
STARLINK-67 4.3 20:29:42 10° WNW 20:31:22 22° N 20:33:01 10° NE
CARTOSAT-1 3.5 20:28:14 17° SSE 20:31:30 80° ENE 20:35:51 10° NNW
SL-8 R/B 3.6 20:26:53 10° WSW 20:31:42 82° S 20:36:33 10° E
STARLINK-1089 3.8 20:27:45 10° WNW 20:31:50 59° SSW 20:34:28 21° SE
Cosmos 2278 Rocket 2.2 20:26:50 10° SSW 20:32:26 65° ESE 20:38:04 10° NNE
STARLINK-1109 4.0 20:29:57 10° WNW 20:34:04 62° NNE 20:38:03 11° E
STARLINK-1231 3.6 20:31:10 10° SW 20:35:16 62° SSE 20:39:22 10° ENE
STARLINK-1107 3.9 20:32:44 10° WNW 20:36:48 55° SSW 20:39:14 22° SE
Meteor 1-12 Rocket 4.3 20:32:56 10° NNW 20:38:37 84° W 20:43:14 16° S
Cosmos 1437 Rocket 3.3 20:37:00 22° SSE 20:38:54 39° E 20:42:28 10° NNE
STARLINK-1091 4.0 20:34:56 10° WNW 20:39:03 64° NNE 20:42:50 12° E
STARLINK-1232 3.5 20:36:07 10° SW 20:40:14 66° SSE 20:44:21 10° ENE
Lacrosse 5 2.0 20:35:46 10° NW 20:40:51 74° NNE 20:44:50 17° ESE
NOSS 2-3 (E) 3.9 20:36:51 10° SW 20:41:11 76° NW 20:46:28 10° NE
STARLINK-1066 3.9 20:37:44 10° WNW 20:41:46 51° SW 20:44:02 23° SSE
Terra 1.9 20:38:31 20° SSE 20:41:48 68° ENE 20:46:33 10° N
STARLINK-1072 3.9 20:39:56 10° WNW 20:44:04 67° NNE 20:47:37 14° ESE
STARLINK-1208 3.5 20:41:03 10° SW 20:45:11 71° SSE 20:49:19 10° ENE
STARLINK-1228 3.7 20:42:41 10° W 20:45:59 56° NNW 20:49:17 10° ENE
STARLINK-1081 4.0 20:42:44 10° WNW 20:46:44 48° SW 20:48:49 25° SSE
STARLINK-1096 3.8 20:44:56 10° WNW 20:49:04 70° NNE 20:52:25 15° ESE
STARLINK-1234 3.7 20:46:31 10° W 20:49:35 54° NNW 20:52:40 10° ENE
STARLINK-1271 3.5 20:46:02 10° SW 20:50:10 75° SSE 20:54:20 10° ENE
Cosmos 1452 Rocket 3.6 20:45:55 14° S 20:50:23 59° ESE 20:55:36 10° NNE
STARLINK-1212 3.3 20:47:49 10° WSW 20:50:55 62° NNW 20:53:59 10° ENE
Cosmos 1300 Rocket 3.9 20:46:48 10° NNW 20:51:13 65° W 20:54:26 18° S
STARLINK-1209 3.8 20:48:16 10° W 20:51:21 51° NNW 20:54:28 10° ENE
STARLINK-1105 3.3 20:48:18 10° WSW 20:51:23 62° NNW 20:54:28 10° ENE
STARLINK-1070 4.1 20:47:43 10° WNW 20:51:41 44° SW 20:53:35 26° SSE
STARLINK-1247 3.4 20:49:12 10° WSW 20:52:18 61° NNW 20:55:24 10° ENE
Okean 3 4.0 20:48:10 10° SSW 20:52:25 60° WNW 20:56:42 10° N
STARLINK-1227 3.4 20:49:40 10° WSW 20:52:45 61° NNW 20:55:49 10° ENE
STARLINK-1226 3.4 20:50:32 10° WSW 20:53:37 60° NNW 20:56:42 10° ENE
Crew Dragon 0.3 20:51:34 10° WNW 20:53:43 64° NNE 20:54:13 44° ENE
STARLINK-1079 3.8 20:49:53 10° WNW 20:54:03 73° NNE 20:57:11 17° ESE
STARLINK-1215 3.4 20:51:28 10° W 20:54:33 60° NNW 20:57:39 10° ENE
STARLINK-1154 3.5 20:51:00 10° WSW 20:55:09 80° SSE 20:59:19 10° ENE
STARLINK-1217 3.5 20:53:14 10° W 20:56:19 58° NNW 20:59:25 10° ENE
STARLINK-1069 4.2 20:52:42 10° WNW 20:56:38 41° SW 20:58:21 27° SSE
Cosmos 1420 Rocket 4.0 20:51:55 10° SSW 20:57:09 89° WNW 21:02:22 10° NNE
STARLINK-1229 3.5 20:54:10 10° W 20:57:15 58° NNW 21:00:20 10° ENE
STARLINK-1243 4.5 20:57:33 27° SE 20:57:43 27° SE 21:01:15 10° E
STARLINK-1270 3.5 20:55:01 10° W 20:58:07 57° NNW 21:01:12 10° ENE
STARLINK-1116 3.7 20:54:52 10° WNW 20:59:02 76° NNE 21:01:58 19° ESE
Cosmos 2221 Rocket 4.2 20:54:54 10° SSW 20:59:19 56° WNW 21:03:48 10° N
STARLINK-1189 3.5 20:56:53 10° W 20:59:57 56° NNW 21:03:03 10° ENE
STARLINK-1197 3.5 20:55:59 10° WSW 21:00:07 84° SSE 21:04:17 10° ENE
STARLINK-1188 3.6 20:57:46 10° W 21:00:50 56° NNW 21:03:55 10° ENE
NOSS 2-3 (D) 4.4 20:56:53 10° WSW 21:01:12 59° NW 21:06:27 10° NE
Cosmos 1766 4.4 20:57:52 10° N 21:01:27 32° ENE 21:03:05 23° ESE
MTI 3.7 20:58:24 10° NNE 21:01:32 60° ESE 21:02:33 36° SSE
STARLINK-1235 3.8 20:58:32 10° W 21:01:33 49° NNW 21:04:35 10° ENE
STARLINK-1085 4.3 20:57:44 10° WNW 21:01:36 38° SW 21:03:10 27° S
COSMOS 2406 4.3 20:56:28 10° NW 21:01:44 37° WSW 21:05:59 15° SSW
STARLINK-1187 3.7 20:58:56 10° W 21:01:57 51° NNW 21:05:00 10° ENE
Meteor 1-13 Rocket 4.3 20:56:55 12° SSW 21:02:11 82° WNW 21:07:55 10° N
STARLINK-1236 4.4 21:02:20 29° SSE 21:02:41 29° SE 21:06:18 10° ENE
STARLINK-1191 3.6 21:00:15 10° W 21:03:18 54° NNW 21:06:22 10° ENE
Cosmos 371 Rocket 3.2 21:00:02 15° SSW 21:04:02 76° ESE 21:08:56 10° NNE
STARLINK-1221 3.6 21:01:08 10° W 21:04:11 54° NNW 21:07:15 10° ENE
USA 215 3.4 20:58:28 12° ESE 21:04:37 76° NNE 21:11:10 10° NW
Meteor 1-23 Rocket 4.3 21:01:01 21° S 21:04:50 62° E 21:10:27 10° NNE
STARLINK-1198 3.5 21:00:55 10° WSW 21:05:05 89° SE 21:09:15 10° ENE
STARLINK-1222 3.6 21:02:01 10° W 21:05:05 53° NNW 21:08:08 10° ENE
Resurs 01 Rocket 4.3 21:03:26 10° WSW 21:05:11 12° W 21:06:56 10° WNW
Meteor 2-4 Rocket 4.4 21:00:30 10° SSW 21:05:45 52° WNW 21:10:59 10° N
STARLINK-1214 3.7 21:02:57 10° W 21:05:59 53° NNW 21:09:03 10° ENE
STARLINK-1086 4.4 21:02:45 10° WNW 21:06:33 36° SW 21:07:57 27° S
Cosmos 1461 4.1 21:06:45 23° ESE 21:06:53 23° ESE 21:10:19 10° ENE
Cosmos 1674 Rocket 3.5 21:04:49 23° S 21:07:31 82° E 21:11:56 10° N
Abrixas rocket 1.7 21:05:21 10° W 21:08:19 85° S 21:09:45 27° E
STARLINK-1094 3.6 21:04:50 10° WNW 21:09:00 84° NNE 21:11:33 23° ESE
STARLINK-1199 3.6 21:05:56 10° WSW 21:10:05 87° NNW 21:14:16 10° ENE
STARLINK-1269 4.2 21:11:51 32° SSE 21:12:33 34° SE 21:16:19 10° ENE
STARLINK-1117 3.6 21:09:49 10° WNW 21:13:59 88° NNE 21:16:19 25° ESE
Cosmos 1378 Rocket 3.5 21:12:35 26° S 21:14:59 76° E 21:19:25 10° NNE
STARLINK-1210 3.6 21:10:54 10° WSW 21:15:03 83° NNW 21:19:13 10° ENE
SPOT 5 3.8 21:12:28 18° SSW 21:16:04 47° W 21:21:11 10° NNW
STARLINK-1111 4.5 21:12:02 10° WNW 21:16:05 50° N 21:20:07 10° E
STARLINK-1200 4.1 21:16:39 33° S 21:17:31 37° SE 21:21:21 10° ENE
Nadezhda 4 Rocket 3.9 21:13:37 21° S 21:17:55 77° E 21:24:03 10° NNE
STARLINK-1078 3.5 21:14:47 10° WNW 21:18:58 87° SSW 21:21:05 28° ESE
STARLINK-1219 3.7 21:15:53 10° WSW 21:20:03 79° NNW 21:24:12 10° ENE
STARLINK-1073 4.4 21:17:02 10° WNW 21:21:06 51° N 21:25:08 10° E
Cosmos 1733 4.0 21:17:37 10° N 21:21:15 38° ENE 21:22:28 30° ESE
NOSS 3-1 (A) 4.4 21:15:52 10° WSW 21:21:23 48° NW 21:27:53 10° NE
Cosmos 1741 Rocket 4.0 21:16:32 10° NNW 21:21:45 73° WSW 21:24:31 28° S
STARLINK-1192 4.0 21:21:25 33° S 21:22:29 39° SE 21:26:22 10° ENE
STARLINK-1108 3.5 21:19:46 10° WNW 21:23:56 83° SSW 21:25:52 31° ESE
STARLINK-1211 3.8 21:20:52 10° WSW 21:25:01 75° NNW 21:29:10 10° ENE
Cosmos 1975 Rocket 3.9 21:23:46 28° SE 21:25:09 35° E 21:29:13 10° NNE
STARLINK-1121 4.4 21:22:00 10° WNW 21:26:04 52° NNE 21:30:07 10° E
JB-3 4.4 21:23:09 10° NNE 21:27:21 75° E 21:29:08 33° S
STARLINK-1244 3.9 21:26:11 33° S 21:27:25 42° SE 21:31:21 10° ENE
NOSS 2-2 (E) 4.3 21:27:52 26° ESE 21:27:52 26° ESE 21:30:50 10° ENE
Cosmos 2297 3.9 21:25:27 26° S 21:28:29 54° ESE 21:34:03 10° NE
STARLINK-1071 3.5 21:24:45 10° WNW 21:28:54 78° SSW 21:30:39 34° SE
CENTAUR R/B 4.1 21:22:38 10° NW 21:29:55 43° NNE 21:38:01 10° ESE
STARLINK-1245 3.8 21:25:52 10° WSW 21:30:01 72° NNW 21:34:10 10° ENE
STARLINK-1106 4.3 21:26:59 10° WNW 21:31:04 53° NNE 21:35:08 10° E
STARLINK-1138 3.8 21:30:58 32° SSW 21:32:23 45° SE 21:36:21 10° ENE
BREEZE-M DEB (TANK) 4.0 21:20:22 10° WNW 21:33:04 60° SW 21:35:38 29° SSE
STARLINK-1110 3.5 21:28:57 10° WNW 21:33:06 75° SSW 21:34:41 36° SE
STARLINK-1203 3.8 21:32:36 27° SSW 21:34:34 48° SE 21:38:37 10° ENE
STARLINK-1233 3.9 21:30:51 10° WSW 21:35:00 69° NNW 21:39:08 10° ENE
Cosmos 1850 Rocket 4.4 21:30:35 10° NNW 21:35:48 55° WSW 21:38:31 27° S
ERBS 2.2 21:32:41 10° SW 21:35:56 85° NW 21:39:16 10° NE
STARLINK-1112 4.3 21:31:59 10° WNW 21:36:04 55° NNE 21:40:03 11° E
STARLINK-1143 3.7 21:35:45 31° SSW 21:37:20 49° SE 21:41:21 10° ENE
Cosmos 1242 Rocket 4.3 21:37:35 19° E 21:37:47 19° E 21:40:28 10° NE
STARLINK-1124 3.5 21:34:44 10° WNW 21:38:52 69° SSW 21:40:14 40° SE
STARLINK-1204 4.0 21:35:52 10° WSW 21:39:59 66° NNW 21:44:08 10° ENE
NOSS 8 (E) 4.0 21:40:14 64° S 21:40:32 71° SE 21:43:35 10° NE
STARLINK-1128 4.2 21:36:59 10° WNW 21:41:04 57° NNE 21:44:50 12° E
Cosmos 2082 Rocket 2.9 21:35:59 10° NW 21:41:25 45° WSW 21:44:18 25° SSW
STARLINK-1241 3.7 21:40:29 29° SSW 21:42:17 53° SSE 21:46:20 10° ENE
Aureole 2 4.1 21:40:00 10° NNW 21:43:24 72° WSW 21:43:49 60° SSW
STARLINK-1122 3.6 21:39:43 10° WNW 21:43:50 65° SSW 21:45:00 43° SSE
Cosmos 1470 4.0 21:40:43 10° N 21:44:10 29° ENE 21:45:16 25° ESE
Okean 1 Rocket 3.7 21:40:27 10° NNW 21:44:48 49° W 21:46:51 28° SSW
STARLINK-1238 4.0 21:40:50 10° W 21:44:57 63° NNW 21:49:05 10° ENE
SeaSat 1 2.4 21:40:14 10° NNE 21:45:12 84° ESE 21:48:18 23° SSW
Cosmos 1110 Rocket 3.9 21:43:28 30° S 21:46:01 70° ESE 21:51:12 10° NNE
STARLINK-1113 4.1 21:41:57 10° WNW 21:46:04 59° NNE 21:49:36 14° E
STARLINK-1239 3.6 21:45:15 27° SW 21:47:15 57° SSE 21:51:19 10° ENE
STARLINK-1126 3.6 21:44:39 10° WNW 21:48:45 61° SSW 21:49:44 45° SSE
Cosmos 1833 Rocket 4.2 21:45:21 10° NW 21:49:48 24° WSW 21:52:51 16° SW
STARLINK-1201 4.1 21:45:52 10° W 21:49:58 61° NNW 21:54:05 10° ENE
NOSS 2-2 (C) 3.9 21:50:29 34° ESE 21:50:29 34° ESE 21:53:45 10° NE
ATLAS 2AS CENTAUR R/B 4.3 21:48:30 18° SE 21:50:36 20° ESE 21:56:01 10° ENE
STARLINK-1119 4.1 21:46:57 10° WNW 21:51:04 61° NNE 21:54:23 15° E
Aureole 2 Rocket 2.0 21:51:13 68° SSW 21:51:35 89° WNW 21:54:42 10° NNE
STARLINK-1240 3.5 21:50:02 25° SW 21:52:13 61° SSE 21:56:19 10° ENE
Cosmos 1805 3.5 21:48:22 10° NNW 21:52:16 62° W 21:53:26 40° SSW
SL-4 R/B 3.2 21:50:11 10° WNW 21:52:33 20° WSW 21:52:33 20° WSW
EO 1 Del DPAF 3.1 21:48:51 10° NNE 21:52:39 79° ESE 21:53:37 48° S
Cosmos 304 Rocket 3.8 21:50:10 26° SSW 21:52:53 82° WNW 21:57:43 10° NNE
BREEZE-M DEB (TANK) 4.1 21:39:02 10° WNW 21:53:31 81° SSW 21:56:23 22° ESE
STARLINK-1082 3.7 21:49:42 10° WNW 21:53:46 57° SSW 21:54:34 47° SSE
STARLINK-1206 4.2 21:50:52 10° W 21:54:57 59° NNW 21:59:04 10° ENE
Okean 2 3.3 21:53:51 44° S 21:55:03 77° E 21:59:14 10° NNE
Cosmos 1092 Rocket 3.9 21:52:19 27° S 21:55:52 88° W 22:02:04 10° N
STARLINK-1114 4.0 21:51:56 10° WNW 21:56:04 63° NNE 21:59:11 17° E
NOSS 3-2 (A) 4.2 21:48:58 10° NW 21:56:19 71° NE 22:02:51 18° SE
STARLINK-1216 3.5 21:54:48 24° SW 21:57:11 65° SSE 22:01:19 10° ENE
Cosmos 1455 Rocket 3.1 21:53:24 10° N 21:57:47 70° E 21:59:08 42° SSE
Cosmos 2369 Rocket 3.1 21:57:13 28° SE 21:58:41 32° ESE 22:03:38 10° NE
STARLINK-1100 3.8 21:54:41 10° WNW 21:58:44 53° SW 21:59:21 47° S
Helios 1A 4.4 21:57:21 22° ESE 21:59:02 29° ENE 22:02:41 10° N
STARLINK-1205 4.3 21:55:52 10° W 21:59:57 57° NNW 22:04:03 10° ENE
STARLINK-1130 (DARKSAT) 3.9 21:56:54 10° WNW 22:01:02 66° NNE 22:03:56 19° E
ISS -2.9 21:58:43 10° WNW 22:01:21 37° WSW 22:01:21 37° WSW
STARLINK-1237 3.5 21:59:34 22° SW 22:02:10 69° SSE 22:06:18 10° ENE
Meteor 1-21 4.5 22:01:13 33° SSE 22:03:30 55° E 22:08:59 10° NNE
USA 238 DEB 4.0 21:56:26 10° NW 22:03:38 75° NE 22:08:58 21° SE
STARLINK-1083 3.8 21:59:40 10° WNW 22:03:41 49° SW 22:04:07 47° SSW
USA 238 4.0 21:56:32 10° NW 22:03:44 74° NE 22:09:06 20° SE
Cosmos 1378 3.7 22:02:30 34° SW 22:03:47 52° WNW 22:07:26 10° N
Cosmos 1627 Rocket 4.5 22:01:10 30° S 22:04:34 85° E 22:10:59 10° N
STARLINK-1218 4.3 22:00:52 10° W 22:04:56 55° NNW 22:09:02 10° ENE
STARLINK-1084 3.9 22:01:53 10° WNW 22:06:02 69° NNE 22:08:43 21° E
Cosmos 1842 3.2 22:05:25 53° S 22:06:16 77° E 22:10:11 10° NNE
STARLINK-1202 3.4 22:04:21 20° SW 22:07:09 74° SSE 22:11:18 10° ENE
STARLINK-1125 3.9 22:04:40 10° WNW 22:08:39 46° SW 22:08:55 45° SSW
Cosmos 1943 Rocket 2.4 22:07:36 36° SSE 22:09:29 51° ESE 22:14:54 10° NE
Cosmos 1025 Rocket 3.9 22:08:42 31° ESE 22:09:32 34° E 22:13:25 10° NNE
Cosmos 1331 Rocket 3.9 22:07:07 29° SSW 22:09:47 84° WNW 22:15:00 10° NNE
STARLINK-1254 4.4 22:05:52 10° W 22:09:56 53° NNW 22:14:01 10° ENE
STARLINK-1098 3.8 22:06:53 10° WNW 22:11:03 72° NNE 22:13:31 23° ESE
STARLINK-1109 4.0 22:09:39 10° WNW 22:13:36 43° SW 22:13:40 42° SSW
Cosmos 1302 Rocket 4.1 22:12:14 38° SSE 22:14:05 60° ESE 22:19:19 10° NNE
SL-8 R/B 3.6 22:09:27 10° W 22:14:16 79° SSW 22:17:56 17° ESE
STARLINK-1231 4.4 22:10:54 10° W 22:14:57 52° NNW 22:19:02 10° ENE
Meteor 2-13 Rocket 4.4 22:12:50 32° S 22:15:53 84° E 22:22:05 10° N
STARLINK-1123 3.7 22:11:51 10° WNW 22:16:00 75° NNE 22:18:17 26° ESE
Cosmos 2278 Rocket 4.1 22:12:08 10° WSW 22:16:58 28° NW 22:21:51 10° NNE
STARLINK-1246 3.5 22:13:54 17° WSW 22:17:05 83° SSE 22:21:15 10° ENE
STARLINK-1091 4.2 22:14:39 10° WNW 22:18:27 40° SW 22:18:27 40° SW
STARLINK-1232 4.5 22:15:54 10° W 22:19:57 51° N 22:24:01 10° ENE
Terra 4.0 22:17:24 11° SW 22:20:02 17° W 22:23:04 10° NW
ALOS 2 2.6 22:19:22 45° SSE 22:20:41 80° ENE 22:25:05 10° NNW
STARLINK-1097 3.6 22:16:50 10° WNW 22:20:59 79° NNE 22:23:04 29° ESE
ATLAS 5 CENTAUR R/B 3.3 22:23:07 17° E 22:23:07 17° E 22:23:47 10° ENE
STARLINK-1224 3.5 22:18:40 15° WSW 22:22:04 87° SSE 22:26:14 10° ENE
Lacrosse 5 2.9 22:19:11 10° WNW 22:23:28 28° SW 22:24:01 27° SW
STARLINK-1072 4.3 22:19:41 10° WNW 22:23:15 36° SW 22:23:15 36° SW
Cosmos 1536 Rocket 4.1 22:23:49 38° SE 22:24:42 43° E 22:28:49 10° NNE
S3M 4.1 22:18:52 10° N 22:24:59 65° ENE 22:27:55 32° SSE
Thor Agena Rocket 4.1 22:19:47 10° N 22:25:00 57° WNW 22:28:05 24° SW
Spot 4 4.3 22:23:24 35° SSW 22:25:06 51° W 22:29:52 10° NNW
Cosmos 1655 Rocket 4.3 22:22:34 32° SSE 22:25:15 54° E 22:31:20 10° NNE
STARLINK-1234 4.5 22:22:50 10° WNW 22:25:46 36° N 22:28:42 10° ENE
STARLINK-1099 3.6 22:21:47 10° WNW 22:25:57 83° NNE 22:27:49 32° ESE
Cosmos 292 Rocket 4.3 22:25:10 38° SE 22:26:13 44° ESE 22:30:50 10° NE
STARLINK-1225 3.5 22:23:26 13° WSW 22:27:03 88° NNW 22:31:14 10° ENE
STARLINK-1209 4.5 22:24:45 10° WNW 22:27:43 36° N 22:30:41 10° ENE
STARLINK-1096 4.5 22:24:43 10° WNW 22:28:03 33° SW 22:28:03 33° SW
COSMOS 2455 4.5 22:28:33 17° ESE 22:29:44 18° ESE 22:33:33 10° ENE
SL-4 R/B 2.9 22:31:54 22° NW 22:31:54 22° NW 22:32:58 10° NNW
STARLINK-1104 3.5 22:26:47 10° WNW 22:30:57 87° NNE 22:32:37 35° ESE
STARLINK-1230 3.6 22:28:12 12° WSW 22:32:01 84° NNW 22:36:12 10° ENE
BREEZE-M DEB (TANK) 3.0 22:22:01 10° WSW 22:32:34 85° SSE 22:35:44 10° E
Cosmos 1544 Rocket 3.6 22:29:13 10° NNW 22:33:32 70° W 22:34:36 48° SSW
EXPRESS MD2 4.4 22:30:45 10° WSW 22:35:18 81° SSE 22:45:15 10° ENE
Cosmos 1726 2.9 22:32:13 10° N 22:35:45 40° ENE 22:36:25 37° ESE
STARLINK-1144 3.5 22:31:46 10° WNW 22:35:56 89° SW 22:37:24 39° ESE
STARLINK-1243 3.6 22:32:59 11° WSW 22:37:01 80° NNW 22:41:10 10° ENE
STARLINK-1235 4.5 22:34:50 10° WNW 22:37:45 36° N 22:40:40 10° ENE
STARLINK-1187 4.5 22:35:15 10° WNW 22:38:08 36° N 22:41:03 10° ENE
SL-27 R/B 2.3 22:35:45 10° NNW 22:39:23 78° WSW 22:39:38 73° SSW
STARLINK-1103 3.5 22:36:45 10° WNW 22:40:54 85° SSW 22:42:11 44° ESE
STARLINK-1236 3.7 22:37:51 10° WSW 22:42:00 77° NNW 22:46:10 10° ENE
STARLINK-1214 4.5 22:39:17 10° WNW 22:42:11 35° N 22:45:05 10° ENE
Cosmos 1553 Rocket 4.0 22:36:22 10° NNW 22:42:42 74° W 22:45:31 35° S
Cosmos 1953 2.6 22:38:57 10° N 22:42:56 59° ENE 22:43:45 47° SE
Cosmos 1340 Rocket 3.5 22:40:36 10° N 22:44:31 46° ENE 22:45:32 37° ESE
Cosmos 1833 4.5 22:39:05 10° NNW 22:44:43 63° ENE 22:47:48 27° SE
Cosmos 1461 3.7 22:43:04 21° WSW 22:45:41 50° NW 22:49:59 10° NNE
STARLINK-1101 3.4 22:41:44 10° WNW 22:45:53 80° SSW 22:46:57 48° SE
Cosmos 1992 Rocket 4.5 22:45:08 37° SE 22:46:30 46° ESE 22:51:28 10° NNE
Cosmos 1271 Rocket 2.6 22:46:32 64° S 22:47:05 87° E 22:51:00 10° NNE
USA 215 3.7 22:45:48 33° S 22:47:57 42° SW 22:54:06 10° WNW
STARLINK-1102 3.5 22:46:44 10° WNW 22:50:52 76° SSW 22:51:45 53° SE
Aureole 3 Rocket 4.2 22:45:53 10° NNW 22:50:58 58° W 22:54:05 31° SSW
Cosmos 1758 3.5 22:47:23 10° NNW 22:51:22 59° W 22:52:04 50° SW
STARLINK-1269 3.8 22:47:49 10° WSW 22:51:57 70° NNW 22:56:06 10° ENE
COSMOS 2487 4.1 22:49:37 10° N 22:52:41 28° ENE 22:53:49 23° E
Cosmos 1656 Rocket 4.2 22:52:30 35° SSE 22:54:09 43° ESE 22:59:26 10° NE
Cosmos 1707 2.6 22:53:56 61° SSW 22:54:34 85° W 22:58:30 10° N
STARLINK-1111 3.5 22:51:42 10° WNW 22:55:50 71° SSW 22:56:31 57° SSE
In-Cosmos 22 4.4 22:54:02 37° SSE 22:55:51 55° E 23:01:01 10° NNE
STARLINK-1200 3.9 22:52:50 10° WSW 22:56:58 67° NNW 23:01:06 10° ENE
NOSS 2-2 (D) 3.8 22:57:13 31° WSW 22:58:43 55° NW 23:02:49 10° NE
YAOGAN 11 4.0 22:58:51 49° SSE 23:00:01 89° NE 23:04:24 10° NNW
Cosmos 1606 Rocket 4.5 22:56:05 10° N 23:00:10 39° ENE 23:01:42 29° ESE
STARLINK-1073 3.5 22:56:42 10° WNW 23:00:49 67° SSW 23:01:19 60° SSE
Meteor 1-16 Rocket 4.2 22:55:26 10° N 23:01:05 75° ENE 23:03:23 36° SSE
NOSS 3-2 (C) 4.0 22:53:47 10° NW 23:01:15 83° SW 23:07:07 22° SE
STARLINK-1192 4.0 22:57:50 10° W 23:01:57 64° NNW 23:06:05 10° ENE
Cosmos 2292 Rocket 3.5 23:02:09 49° SSE 23:03:08 67° E 23:06:50 10° NNE
CZ-4 R/B 4.4 23:00:13 10° NNE 23:04:52 44° E 23:06:12 35° SE
APEX 4.4 23:02:48 35° S 23:05:39 68° ESE 23:11:17 10° NE
STARLINK-1121 3.5 23:01:40 10° WNW 23:05:46 62° SSW 23:06:04 60° S
STARLINK-1244 4.1 23:02:49 10° W 23:06:56 62° NNW 23:11:03 10° ENE
STARLINK-1106 3.6 23:06:39 10° WNW 23:10:44 58° SSW 23:10:51 58° SSW
STARLINK-1138 4.1 23:07:49 10° W 23:11:56 59° NNW 23:16:02 10° ENE
NOSS 3-4 (A) 3.8 23:10:07 35° SSE 23:11:59 46° ESE 23:17:57 10° NE
NOSS 3-4 (C) 3.8 23:10:14 35° SSE 23:12:05 45° ESE 23:18:04 10° NE
Meteor 2-10 4.0 23:07:15 10° NNW 23:12:18 67° W 23:13:53 42° SSW
Cosmos 1242 Rocket 3.8 23:11:36 29° W 23:12:25 33° WNW 23:15:48 10° N
SL-4 R/B 3.7 23:13:39 24° ESE 23:13:39 24° ESE 23:16:51 10° E
Aureole 3 2.8 23:09:53 10° N 23:13:42 82° E 23:13:55 75° SE
STARLINK-1203 4.2 23:10:12 10° W 23:14:21 58° NNW 23:18:31 10° ENE
PSLV R/B 4.2 23:10:26 10° NNE 23:14:55 48° E 23:16:05 38° SE
STARLINK-1112 3.7 23:11:39 10° WNW 23:15:39 54° SW 23:15:39 54° SW
STARLINK-1143 4.2 23:12:49 10° W 23:16:55 58° NNW 23:21:02 10° ENE
ATLAS 3B R/B 3.1 23:10:39 10° NW 23:17:22 63° NE 23:24:18 10° SE
SL-16 R/B 4.2 23:12:32 10° ESE 23:17:35 28° ENE 23:22:39 10° N
Cosmos 2266 Rocket 3.9 23:16:09 36° SSW 23:18:54 86° W 23:25:01 10° N
Cosmos 1674 3.0 23:18:32 48° ESE 23:19:01 51° E 23:22:41 10° NNE
Cosmos 1470 4.2 23:16:56 10° NW 23:20:06 24° W 23:20:37 23° WSW
STARLINK-1128 3.8 23:16:39 10° WNW 23:20:26 49° SW 23:20:26 49° SW
ATLAS CENTAUR R/B 2.8 23:20:47 25° ESE 23:20:54 25° ESE 23:24:23 10° ENE
CENTAUR R/B 3.1 23:13:21 10° NW 23:21:21 77° SW 23:27:41 21° SSE
STARLINK-1241 4.3 23:17:49 10° W 23:21:55 56° NNW 23:26:00 10° ENE
Cosmos 1503 Rocket 4.0 23:17:47 10° NNW 23:23:02 67° WSW 23:24:51 40° S
STARLINK-1113 4.0 23:21:38 10° WNW 23:25:12 45° SW 23:25:12 45° SW
STARLINK-1239 4.3 23:22:50 10° W 23:26:54 54° NNW 23:30:59 10° ENE
STARLINK-1119 4.2 23:26:38 10° WNW 23:29:59 40° WSW 23:29:59 40° WSW
BREEZE-M DEB 4.4 23:26:49 10° W 23:30:57 85° N 23:47:55 10° E
STARLINK-1240 4.4 23:27:51 10° W 23:31:55 52° NNW 23:35:59 10° ENE
BREEZE-M DEB (TANK) 3.1 23:28:53 10° WNW 23:32:19 65° SSW 23:38:08 10° ESE
Cosmos 1867 3.5 23:27:25 10° NW 23:32:55 89° NE 23:36:08 26° SE
Helios 1A 4.0 23:33:57 30° WSW 23:34:32 31° W 23:38:17 10° NNW
STARLINK-1114 4.3 23:31:39 10° WNW 23:34:47 36° WSW 23:34:47 36° WSW
Cosmos 968 Rocket 4.2 23:32:03 10° NW 23:36:48 38° WSW 23:38:01 33° SW
STARLINK-1216 4.4 23:32:51 10° W 23:36:54 51° N 23:40:58 10° ENE
Cosmos 1354 Rocket 4.2 23:32:43 10° NNW 23:37:54 57° WSW 23:39:37 39° SSW
Cosmos 1892 Rocket 4.0 23:37:41 37° SE 23:39:02 51° E 23:43:18 10° NNE
Cosmos 1908 3.1 23:35:36 10° NNW 23:39:26 78° W 23:40:02 60° SSW
Cosmos 2227 Rocket 4.3 23:34:57 10° N 23:39:34 25° NE 23:44:09 10° E
ATLAS 2AS CENTAUR R/B 3.0 23:35:53 28° SSW 23:40:31 76° SE 23:48:26 10° NE
STARLINK-1237 4.5 23:37:52 10° W 23:41:55 50° N 23:45:58 10° ENE
Meteor 1-24 Rocket 4.2 23:39:53 29° SSE 23:42:12 46° E 23:47:21 10° NNE
Cosmos 2369 Rocket 2.9 23:38:58 21° WSW 23:42:31 49° NW 23:48:01 10° NNE
RESURS DK-1 3.9 23:43:24 22° SE 23:44:08 23° ESE 23:47:27 10° NE
CZ-2D R/B 3.8 23:41:50 10° NE 23:45:56 22° E 23:48:56 14° SE
Cosmos 1726 Rocket 3.4 23:44:04 10° N 23:48:24 85° W 23:49:40 46° S
Cosmos 2315 Rocket 4.1 23:43:15 10° NNW 23:49:22 63° W 23:52:12 33° SSW
Helios 1B rocket 2.5 23:47:34 10° N 23:51:42 71° WNW 23:52:51 45° SW
Cosmos 1943 Rocket 3.6 23:49:04 12° WSW 23:53:29 32° NW 23:58:30 10° NNE
KORONAS-FOTON 3.9 23:55:12 49° SW 23:55:58 63° WNW 23:59:47 10° N
